Location: El Álamo
(40.2307°N, 3.9945°W)
Time: 03:39:07
(UTC+00:00)

NOSS 3-1 (A) - Pass Details

Date: 19 May 2025
Orbit: 639 x 1568 km, 63.4° (Epoch: 20 June)

Event Time Altitude Azimuth Distance (km) Brightness Sun altitude
Exits shadow 20:50:24 17° 103° (ESE) 1,752 4.3 -13.6°
Drops below altitude 10° 20:53:14 10° 68° (ENE) 2,262 5.2 -14.0°
Sets 20:56:36 0° 49° (NE) 3,340 6.2 -14.5°
